Effective Sunday, March 17, 2024, the National Weather Service National Data Buoy Center will discontinue its Dial-A-Buoy Interactive Voice Response system. For more information, see Service Change Notice 24-06 (PDF).

Station PILM4 - Passage Island, MI Image indicating link to RSS feed of recent meteorological observations for station PILM4


Conditions at PILM4 as of
(6:00 pm EST)
2300 GMT on 02/27/2024:
     

Click on the graph icon in the table below to see a time series plot of the last five days of that observation.

5-day plot - Wind Direction Wind Direction (WDIR): N ( 350 deg true )
5-day plot - Wind Speed Wind Speed (WSPD): 25 kts
5-day plot - Wind Gust Wind Gust (GST): 32 kts
5-day plot - Atmospheric Pressure Atmospheric Pressure (PRES):29.52 in
5-day plot - Pressure Tendency Pressure Tendency (PTDY):+0.14 in ( Rising Rapidly )
5-day plot - Air Temperature Air Temperature (ATMP): 12.2 °F
5-day plot - Wind Chill Wind Chill (CHILL): -9.0 °F
5-day plot - Wind Speed at 10 Meters Wind Speed at 10 meters (WSPD10M): 23 kts
5-day plot - Wind Speed at 20 Meters Wind Speed at 20 meters (WSPD20M): 25 kts
5-day plot -  Wind Speed, Wind Gust and Atmospheric Pressure Combined plot of Wind Speed, Gust, and Air Pressure
Continuous Winds
TIME
(EST)
5-day plot - Wind Direction WDIR 5-day plot - Wind Speed WSPD
6:00 pmNNW ( 345 deg ) 25 kts
5:50 pmN ( 351 deg ) 25 kts
5:40 pmN ( 350 deg ) 26 kts
5:30 pmN ( 349 deg ) 24 kts
5:20 pmNNW ( 348 deg ) 23 kts
5:10 pmN ( 352 deg ) 24 kts
 
Peak gust during the measurement hour
TIME
(EST)
5-day plot - Gust Direction GDR 5-day plot - Gust Speed GST
5:25 pmN ( 350 deg ) 38 kts
Previous observations
TIME
(EST)
5-day plot - Wind Direction
WDIR
 
5-day plot - Wind Speed
WSPD
kts
5-day plot - Wind Gust
GST
kts
5-day plot - Wave Height
WVHT
ft
5-day plot - Dominant Wave Period
DPD
sec
5-day plot - Average Wave Period
APD
sec
5-day plot - Mean Wave Direction
MWD
 
5-day plot - Atmospheric Pressure
PRES
in
5-day plot - Pressure Tendency
PTDY
in
5-day plot - Air Temperature
ATMP
°F
5-day plot - Water Temperature
WTMP
°F
5-day plot - Dew Point
DEWP
°F
5-day plot - Salinity
SAL
psu
5-day plot - Visibility
VIS
nmi
5-day plot - Tide (above MLLW)
TIDE
ft
2024-02-27 05:00 pm N 24 34----29.47+0.12 13.8-----
2024-02-27 04:00 pm N 22 35----29.43+0.03 16.7-----
2024-02-27 03:00 pm N 23 30----29.39-0.01 21.7-----
2024-02-27 02:00 pm NE 13 18----29.35-0.07 33.1-----
2024-02-27 01:00 pmNNE 11 15----29.39-0.01 33.4-----
2024-02-27 12:00 pm NE 13 20----29.40+0.00 34.2-----
2024-02-27 11:00 am NE 16 22----29.42+0.02 34.3-----
2024-02-27 10:00 am NE 12 16----29.41+0.00 34.9-----
2024-02-27 09:00 amENE 17 19----29.40-0.01 35.8-----
2024-02-27 08:00 am NE 13 17----29.40+0.00 35.4-----
2024-02-27 07:00 amNNE 12 14----29.41-0.01 34.7-----
2024-02-27 06:00 am NE 10 13----29.41-0.01 34.9-----
2024-02-27 05:00 am N 10 13----29.41-0.02 34.5-----
2024-02-27 04:00 amENE 9 9----29.41-0.02 35.4-----
2024-02-27 03:00 am NE 8 9----29.42-0.02 35.4-----
2024-02-27 02:00 am N 9 10----29.43-0.02 36.5-----
2024-02-27 01:00 am W 3 4----29.44-0.01 37.8-----
2024-02-27 12:00 am S 6 6----29.44-0.01 38.5-----
2024-02-26 11:00 pm SE 6 6----29.45-0.01 37.0-----
2024-02-26 10:00 pmESE 6 6----29.45+0.00 36.7-----
2024-02-26 09:00 pmESE 7 7----29.46+0.01 37.0-----
2024-02-26 08:00 pm SE 10 11----29.46-0.01 36.7-----
2024-02-26 07:00 pm SE 19 20----29.44-0.06 36.7-----
2024-02-26 06:00 pm SE 21 23----29.44-0.07 36.7-----